Wind_Speed
25 24 24 23 22 21 20 19 18 17 16 15 14 13 12 11 10 10 10 9 8 8 7 6 6 5 5 4 4 4 4 3 3 3 3 3 4 4 5 6 7 8 9
27 26 26 26 25 23 22 21 20 20 19 18 16 15 14 13 13 12 12 11 10 10 9 9 8 8 7 6 6 6 6 6 5 5 5 6 6 6 6 7 8 9 9
31 28 28 28 28 26 25 24 22 21 21 20 19 18 17 16 15 14 14 13 12 12 11 10 10 10 9 9 8 8 7 8 8 7 7 8 8 8 8 8 9 10 10
33 31 30 30 30 29 28 27 26 24 23 22 21 20 19 18 18 17 16 15 15 14 13 13 12 12 11 11 11 10 10 10 10 10 10 10 10 10 10 10 10 11 11
34 32 32 31 30 30 29 29 29 27 25 24 23 22 21 20 20 19 18 18 17 17 16 15 15 14 14 13 13 13 12 12 12 12 12 12 12 12 12 12 12 12 13
36 35 32 31 32 32 31 30 30 29 27 27 26 25 23 22 22 21 21 20 20 19 18 18 17 17 17 16 16 15 15 15 14 14 14 14 14 14 14 14 15 15 15
38 37 35 34 33 32 32 32 31 29 28 28 26 25 25 25 25 23 23 23 22 21 21 20 19 19 19 18 18 18 17 17 17 16 16 16 16 16 16 16 16 16 17
38 38 38 36 36 34 33 34 33 31 30 29 27 27 25 24 25 25 25 24 24 23 22 22 21 21 21 21 20 20 20 20 19 19 19 19 19 19 19 19 19 19 19
37 37 38 38 36 34 34 33 33 33 32 32 29 28 27 26 26 25 25 25 25 24 24 23 23 22 22 22 22 22 22 22 22 22 21 21 21 22 22 21 21 21 21
36 37 36 37 36 35 34 34 33 33 33 32 32 31 30 29 27 26 26 26 26 26 26 25 25 24 23 23 23 24 24 24 24 24 24 24 24 24 24 23 24 24 24
35 35 35 36 36 35 35 35 35 34 33 33 32 32 32 31 30 29 28 28 27 27 27 27 27 26 25 25 25 25 26 25 26 26 26 26 26 26 26 26 25 26 26
31 32 33 35 35 35 35 36 36 35 33 33 33 33 33 32 31 30 29 29 29 29 29 28 29 28 28 26 26 27 27 27 28 28 28 28 28 28 28 28 28 27 28
27 29 30 32 33 32 34 36 36 35 35 34 34 34 33 33 32 32 31 31 31 31 31 30 30 29 29 28 27 28 29 29 29 30 30 30 30 29 29 29 29 30 29
23 25 27 29 30 31 33 34 35 35 34 34 35 35 34 34 33 32 32 32 32 33 33 33 31 31 30 29 28 29 30 30 30 31 31 31 31 31 30 30 31 31 30
19 21 23 24 26 29 30 32 33 34 34 34 34 33 34 35 35 34 34 33 32 32 32 31 32 32 30 30 29 30 30 31 31 32 32 32 33 33 32 32 32 32 32
14 16 17 19 22 24 26 27 29 30 31 32 32 31 32 33 33 34 34 33 33 33 33 32 31 32 32 31 30 30 31 31 31 31 32 33 34 34 34 34 33 33 33
10 12 14 15 17 19 21 23 25 25 25 27 28 29 29 30 31 32 33 32 31 31 31 31 30 30 30 30 29 28 29 30 30 30 31 32 33 34 34 33 33 33 33
6 7 8 10 12 14 16 18 20 22 22 23 24 25 26 27 28 28 29 29 29 29 28 29 29 28 27 26 26 26 26 28 29 29 29 30 32 33 32 32 32 31 31
5 5 6 7 8 11 12 14 16 18 19 19 21 23 24 25 26 26 27 28 28 28 28 28 27 27 27 27 26 26 25 26 27 27 28 29 30 31 31 31 30 29 29
7 6 5 6 7 8 9 11 13 14 15 17 19 20 21 22 23 24 25 26 27 27 28 28 28 27 26 25 25 25 25 25 26 26 26 27 27 27 27 27 27 26 26
9 8 7 6 5 6 8 9 11 12 14 16 17 19 20 20 21 21 22 23 24 25 26 26 26 26 25 24 24 23 23 23 24 24 23 23 23 24 24 23 23 24 25
12 10 9 7 6 6 7 7 9 11 12 13 14 15 16 17 18 19 20 22 22 22 22 23 23 23 23 22 23 23 23 21 21 20 20 21 21 21 21 21 22 22 22
14 12 11 10 8 6 5 5 6 7 8 10 11 12 13 15 15 16 17 18 19 20 20 21 20 20 19 20 21 20 20 19 19 18 18 18 18 18 17 17 18 19 20
16 14 13 11 10 9 6 6 4 3 4 5 7 8 10 11 12 13 13 14 15 16 17 17 18 17 17 17 16 15 15 15 15 15 14 14 14 15 16 16 17 17 18
17 17 15 14 12 11 9 8 6 4 3 3 4 5 5 6 7 8 10 11 13 15 15 14 14 13 13 12 12 12 12 12 12 12 12 12 13 14 15 15 16 16 16
19 18 17 16 14 13 12 10 8 6 4 2 2 2 3 2 3 4 6 7 9 10 11 11 11 11 11 10 10 10 10 10 10 11 11 12 13 13 13 14 14 15 15
Wind_Direction
250 248 247 248 249 248 248 250 251 252 251 249 250 250 251 251 247 248 251 251 251 251 251 253 257 260 262 263 260 260 263 265 264 255 253 251 250 250 243 236 232 230 231
254 252 250 249 249 249 249 250 252 252 253 251 252 252 252 251 250 245 248 249 250 252 253 254 255 257 259 260 261 261 262 263 262 259 257 257 256 254 251 247 244 240 241
255 255 252 251 249 249 249 250 252 252 253 253 253 253 253 252 252 247 247 249 250 251 252 253 254 256 258 259 262 263 264 265 264 263 261 260 259 257 255 252 250 246 247
259 258 255 254 251 248 249 250 251 252 253 253 253 253 253 253 252 249 247 247 250 251 252 253 254 256 258 260 262 265 266 266 266 265 264 264 262 261 260 257 254 253 254
258 257 256 255 254 250 250 252 252 252 251 252 252 252 252 252 253 251 248 247 248 252 253 253 254 255 256 259 261 264 266 267 267 266 266 266 266 267 266 265 264 262 260
255 253 255 255 254 251 250 251 251 250 250 251 251 251 251 251 253 253 250 247 247 250 252 253 254 254 255 257 260 263 265 267 268 267 266 266 267 268 269 269 269 268 267
255 253 253 253 255 254 251 250 251 248 248 249 250 250 251 252 251 252 252 250 249 249 248 251 253 254 254 256 258 261 264 266 268 268 268 268 269 270 271 271 271 270 271
254 253 254 254 254 255 254 253 250 247 247 248 249 249 249 250 250 250 250 250 249 248 248 249 252 253 255 256 257 259 261 264 266 268 269 270 271 271 272 273 272 271 271
254 253 253 253 253 253 253 252 250 249 249 249 247 246 247 247 249 250 250 250 248 248 248 250 252 253 255 257 259 259 260 262 263 266 268 270 272 273 273 273 274 273 272
252 252 252 251 251 251 252 253 251 249 249 250 248 246 245 246 249 248 250 250 249 249 249 250 251 253 253 256 259 260 260 260 261 263 266 268 270 272 273 273 274 274 274
254 252 250 251 251 249 252 253 252 250 248 248 250 248 246 245 248 248 250 249 248 249 250 251 252 253 254 255 258 260 260 259 260 262 264 267 268 270 272 273 273 273 273
253 252 249 248 248 248 248 250 249 248 248 248 249 250 249 248 250 249 249 248 249 249 250 252 253 254 256 255 256 258 258 258 259 260 262 265 266 268 270 271 271 272 273
251 249 248 247 246 247 247 247 246 246 247 247 247 249 250 249 249 250 250 249 250 250 251 252 254 256 257 257 256 257 257 258 258 259 261 263 265 266 268 270 271 272 273
252 250 248 247 246 247 247 247 246 246 247 248 248 248 248 247 248 250 249 249 250 252 252 253 254 257 256 255 254 256 257 257 259 260 261 263 263 265 267 268 270 271 272
254 250 249 249 249 247 246 246 247 248 248 248 248 247 248 248 247 248 249 249 250 252 251 251 253 254 255 256 257 257 257 259 260 259 260 262 263 264 265 267 269 270 271
262 254 251 250 250 248 245 244 245 247 247 247 249 248 250 249 249 249 249 249 251 252 252 251 253 254 256 256 259 258 259 258 259 259 260 262 263 264 265 266 268 269 270
275 261 255 253 250 248 247 247 246 246 247 247 248 248 249 249 247 247 248 248 250 251 251 251 253 254 256 258 258 258 258 260 259 259 259 260 262 263 264 266 267 268 269
304 285 271 257 252 248 246 246 247 248 247 247 247 246 247 247 246 246 248 250 249 250 252 252 251 252 255 257 258 259 261 260 258 256 257 260 261 263 264 266 266 267 268
337 319 301 273 259 254 253 250 249 247 246 247 248 249 249 249 247 247 250 249 249 250 252 252 251 252 254 254 257 259 258 258 257 257 259 261 261 262 262 264 265 266 267
0 350 330 301 273 267 263 257 253 251 250 252 253 252 252 250 248 248 248 247 248 250 250 250 250 251 253 254 256 258 257 257 258 258 260 261 262 262 262 263 265 266 268
6 359 350 335 304 283 274 265 263 259 256 256 255 255 253 252 249 248 249 248 250 249 247 249 249 252 253 253 256 255 255 257 258 260 261 260 261 261 260 262 264 266 269
15 10 7 360 342 319 298 281 270 266 260 258 259 257 255 254 253 252 250 250 250 249 248 248 248 249 251 252 253 253 252 254 256 256 257 257 257 257 258 261 265 269 273
23 21 18 14 4 348 334 316 295 274 268 263 260 256 254 254 258 255 251 248 246 246 246 246 246 247 249 248 249 248 247 250 253 253 252 255 256 260 263 267 272 274 276
29 27 24 23 20 15 12 4 345 311 289 273 261 254 252 250 246 244 243 244 241 237 237 239 241 242 244 247 246 244 245 245 246 247 251 255 258 265 270 274 276 277 280
32 32 32 32 31 30 30 23 12 354 330 306 275 254 245 239 231 230 232 235 234 233 233 232 232 233 234 237 238 238 238 242 246 249 253 258 262 267 273 276 278 280 283
34 35 35 35 34 33 32 29 25 23 19 11 337 298 256 243 229 240 234 233 229 226 228 227 227 227 227 228 226 226 230 237 243 249 255 261 265 270 274 276 279 281 284
Height
5889 5890 5891 5892 5893 5894 5895 5896 5897 5898 5899 5900 5900 5901 5902 5903 5904 5904 5904 5905 5905 5906 5906 5907 5907 5908 5908 5909 5909 5910 5910 5911 5911 5912 5913 5913 5914 5915 5916 5917 5918 5919 5920
5883 5884 5885 5887 5888 5889 5891 5892 5893 5894 5895 5896 5897 5898 5899 5900 5901 5902 5902 5903 5903 5904 5905 5905 5906 5907 5907 5908 5908 5909 5909 5910 5911 5911 5912 5912 5913 5914 5914 5915 5916 5917 5918
5876 5877 5879 5881 5882 5884 5885 5887 5888 5890 5891 5892 5893 5894 5895 5896 5898 5899 5900 5900 5901 5902 5903 5903 5904 5905 5906 5906 5907 5907 5908 5909 5909 5910 5910 5911 5912 5912 5913 5914 5914 5915 5916
5868 5870 5872 5873 5875 5877 5879 5881 5882 5884 5886 5887 5889 5890 5891 5893 5894 5895 5896 5897 5898 5899 5900 5901 5902 5903 5904 5904 5905 5906 5906 5907 5908 5908 5909 5909 5910 5910 5911 5912 5912 5913 5914
5860 5862 5864 5866 5867 5870 5873 5875 5876 5878 5880 5882 5884 5886 5887 5888 5889 5890 5892 5894 5895 5896 5897 5898 5899 5900 5901 5902 5903 5904 5904 5905 5906 5906 5907 5907 5908 5908 5909 5909 5910 5910 5911
5852 5854 5856 5858 5860 5863 5865 5868 5870 5872 5874 5876 5878 5880 5882 5883 5885 5886 5888 5889 5891 5893 5894 5895 5896 5897 5898 5899 5900 5901 5902 5902 5903 5903 5904 5905 5905 5906 5906 5907 5907 5907 5908
5842 5845 5847 5850 5851 5855 5857 5860 5863 5865 5867 5870 5872 5874 5876 5878 5880 5881 5883 5884 5886 5888 5889 5891 5892 5893 5894 5896 5897 5898 5899 5899 5900 5900 5901 5902 5902 5903 5903 5903 5904 5904 5904
5832 5836 5839 5841 5844 5847 5849 5852 5855 5858 5860 5863 5865 5867 5870 5872 5873 5875 5877 5879 5881 5883 5884 5886 5888 5889 5890 5891 5892 5894 5895 5896 5896 5897 5898 5898 5899 5899 5900 5900 5900 5900 5900
5822 5826 5829 5832 5835 5838 5841 5843 5847 5850 5853 5855 5858 5861 5863 5865 5867 5870 5872 5873 5875 5877 5879 5881 5883 5884 5886 5887 5888 5889 5890 5891 5892 5893 5894 5894 5895 5895 5896 5896 5896 5896 5896
5812 5816 5819 5823 5826 5829 5832 5835 5839 5842 5845 5848 5850 5853 5856 5858 5861 5863 5866 5868 5869 5871 5873 5875 5877 5879 5881 5882 5883 5884 5885 5886 5887 5888 5889 5890 5890 5891 5891 5892 5892 5892 5892
5802 5806 5809 5813 5817 5820 5823 5827 5830 5833 5836 5839 5842 5845 5848 5851 5854 5856 5859 5861 5863 5865 5866 5869 5870 5872 5874 5876 5878 5878 5879 5881 5882 5883 5884 5884 5885 5886 5886 5887 5887 5887 5887
5794 5797 5800 5804 5807 5811 5815 5818 5821 5825 5828 5831 5834 5837 5840 5843 5845 5848 5851 5854 5855 5858 5860 5862 5864 5866 5867 5869 5871 5872 5873 5874 5876 5877 5878 5879 5879 5880 5881 5881 5881 5882 5882
5786 5789 5792 5795 5799 5802 5805 5808 5812 5816 5819 5822 5825 5829 5832 5835 5837 5840 5843 5846 5848 5850 5853 5855 5857 5858 5860 5862 5864 5865 5866 5868 5868 5870 5871 5872 5873 5874 5874 5875 5875 5875 5875
5779 5782 5784 5787 5790 5793 5797 5800 5803 5807 5810 5813 5816 5820 5823 5826 5829 5832 5835 5838 5840 5843 5845 5847 5849 5851 5852 5854 5856 5857 5859 5860 5861 5863 5864 5865 5866 5867 5868 5868 5869 5869 5869
5774 5776 5778 5780 5783 5786 5789 5791 5795 5798 5801 5805 5808 5810 5814 5817 5820 5823 5826 5829 5833 5835 5837 5839 5841 5843 5845 5847 5849 5850 5851 5853 5854 5856 5857 5858 5859 5860 5861 5861 5862 5862 5862
5770 5771 5773 5775 5777 5779 5781 5784 5787 5790 5793 5796 5799 5802 5806 5809 5812 5815 5818 5821 5824 5826 5829 5831 5833 5835 5837 5839 5841 5843 5844 5845 5847 5848 5849 5851 5852 5853 5854 5854 5855 5855 5855
5767 5767 5768 5769 5771 5773 5775 5778 5780 5782 5785 5788 5791 5794 5797 5800 5803 5807 5809 5812 5815 5818 5820 5823 5825 5827 5829 5831 5833 5834 5836 5837 5839 5840 5841 5843 5844 5845 5846 5846 5847 5847 5848
5764 5764 5765 5765 5766 5768 5770 5772 5774 5776 5779 5781 5784 5787 5790 5792 5796 5799 5801 5805 5807 5810 5812 5815 5817 5819 5821 5823 5825 5827 5828 5829 5831 5832 5833 5835 5836 5837 5838 5839 5839 5840 5840
5763 5762 5762 5762 5763 5765 5766 5767 5769 5771 5773 5775 5778 5780 5783 5786 5789 5792 5794 5797 5800 5802 5805 5807 5810 5812 5814 5816 5818 5820 5821 5822 5823 5825 5826 5827 5829 5830 5830 5831 5832 5832 5833
5763 5762 5761 5761 5761 5762 5763 5763 5765 5767 5769 5770 5772 5774 5777 5779 5782 5784 5787 5790 5792 5795 5797 5799 5802 5805 5807 5809 5811 5812 5814 5815 5817 5818 5819 5820 5821 5822 5823 5824 5825 5825 5826
5763 5761 5760 5760 5760 5760 5760 5761 5762 5763 5764 5766 5767 5769 5771 5773 5775 5778 5780 5782 5785 5787 5790 5792 5795 5797 5800 5802 5804 5806 5807 5808 5810 5811 5812 5814 5815 5816 5817 5818 5818 5819 5820
5763 5762 5760 5759 5759 5758 5758 5758 5758 5759 5760 5761 5763 5764 5766 5768 5769 5771 5774 5776 5779 5781 5784 5786 5788 5791 5793 5796 5798 5799 5801 5802 5804 5805 5807 5808 5809 5810 5811 5812 5813 5813 5814
5765 5762 5761 5759 5758 5757 5756 5756 5756 5756 5757 5758 5759 5760 5762 5763 5764 5766 5768 5771 5773 5776 5779 5781 5783 5785 5788 5789 5791 5793 5795 5797 5799 5800 5801 5802 5804 5805 5806 5807 5807 5808 5808
5766 5764 5762 5760 5758 5757 5756 5755 5755 5755 5755 5755 5756 5757 5758 5759 5760 5762 5764 5767 5769 5771 5773 5775 5778 5780 5783 5784 5786 5788 5790 5792 5794 5795 5797 5798 5799 5800 5801 5802 5802 5802 5802
5769 5766 5764 5762 5760 5758 5757 5756 5755 5754 5754 5754 5755 5755 5756 5757 5758 5759 5761 5763 5765 5767 5769 5771 5774 5776 5778 5780 5782 5784 5786 5788 5790 5792 5793 5794 5795 5796 5797 5797 5798 5798 5797
5771 5769 5766 5764 5762 5760 5759 5757 5755 5754 5754 5754 5754 5754 5755 5756 5757 5758 5759 5761 5762 5764 5766 5768 5770 5773 5775 5777 5779 5782 5784 5786 5787 5788 5789 5791 5792 5793 5793 5793 5793 5793 5793